Iridium 75 - Orbit

View from above orbital plane
View from above orbital plane
View from above satellite
View from above satellite

Ground track
Ground track

The orbit data is extracted from the following two-line orbital elements,

1 25346U 98032E   13142.46220154  .00000151  00000-0  47024-4 0  3337
2 25346 086.3965 125.5346 0002301 104.5036 041.9181 14.34212423786573
Epoch (UTC): 22 May 2013 11:05:34
Eccentricity: 0.0002301
inclination: 86.3965°
perigee height: 776 km
apogee height: 779 km
right ascension of ascending node: 125.5346°
argument of perigee: 104.5036°
revolutions per day: 14.34212423
mean anomaly at epoch: 41.9181°
orbit number at epoch: 78657

The dashed part of the orbit path shows where the satellite is in the earth's shadow,  

Developed and maintained by Chris Peat, Heavens-Above GmbH. Please read the updated FAQ before sending e-mail. Imprint. DLR